Tracking 27422 objects as of 30-May-2023
HD Live streaming from Space Station
objects crossing your sky now

WESTFORD NEEDLES

Track WESTFORD NEEDLES now!
10-day predictions
WESTFORD NEEDLES is classified as:


NORAD ID: 2530
Int'l Code: 1963-014AJ
Perigee: 3,365.0 km
Apogee: 3,895.2 km
Inclination: 87.6 °
Period: 165.9 minutes
Semi major axis: 10001 km
RCS: 0.1665 m2 (medium)
Launch date: May 9, 1963
Source: United States (US)
Launch site: AIR FORCE WESTERN TEST RANGE (AFWTR)
Your satellite tracking list
Your tracking list is empty




NASA's NSSDC Master Catalog

Two Line Element Set (TLE):
1 02530U 63014AJ  23147.76645699 -.00000159  00000-0 -71424-1 0  9999
2 02530  87.5993 249.6222 0265079 102.6392  52.4860  8.68023499842729
Source of the keplerian elements: AFSPC